www.pogodaiklimat.ru
ПОГОДА в Порвоо
Время
(UTC), дата
01 29.11
02 29.11
03 29.11
04 29.11
05 29.11
06 29.11
07 29.11
08 29.11
09 29.11
10 29.11
11 29.11
12 29.11
13 29.11
14 29.11
15 29.11
16 29.11
17 29.11
18 29.11
19 29.11
20 29.11
21 29.11
22 29.11
23 29.11
00 30.11
01 30.11
02 30.11
03 30.11
04 30.11
05 30.11
06 30.11
07 30.11
08 30.11
09 30.11
10 30.11
11 30.11
12 30.11
13 30.11
14 30.11
15 30.11
16 30.11
17 30.11
18 30.11
19 30.11
20 30.11
21 30.11
22 30.11
23 30.11
00 1.12
01 1.12
02 1.12
03 1.12
04 1.12
05 1.12
06 1.12
07 1.12
08 1.12
09 1.12
10 1.12
11 1.12
12 1.12
13 1.12
14 1.12
15 1.12
16 1.12
17 1.12
18 1.12
19 1.12
20 1.12
21 1.12
22 1.12
23 1.12
00 2.12
01 2.12
02 2.12
03 2.12
04 2.12
05 2.12
06 2.12
07 2.12
08 2.12
09 2.12
10 2.12
11 2.12
12 2.12
13 2.12
14 2.12
15 2.12
16 2.12
17 2.12
18 2.12
19 2.12
20 2.12
21 2.12
22 2.12
23 2.12
00 3.12
01 3.12
02 3.12
03 3.12
04 3.12
05 3.12
06 3.12
07 3.12
08 3.12
09 3.12
10 3.12
11 3.12
12 3.12
13 3.12
14 3.12
15 3.12
16 3.12
17 3.12
18 3.12
19 3.12
20 3.12
21 3.12
22 3.12
23 3.12
00 4.12
01 4.12
02 4.12
03 4.12
04 4.12
05 4.12
06 4.12
07 4.12
08 4.12
09 4.12
10 4.12
11 4.12
12 4.12
13 4.12
14 4.12
15 4.12
16 4.12
17 4.12
18 4.12
19 4.12
20 4.12
21 4.12
22 4.12
23 4.12
00 5.12
01 5.12
02 5.12
03 5.12
04 5.12
05 5.12
06 5.12
07 5.12
08 5.12
09 5.12
10 5.12
11 5.12
12 5.12
13 5.12
14 5.12
15 5.12
16 5.12
17 5.12
18 5.12
19 5.12
20 5.12
21 5.12
22 5.12
23 5.12
00 6.12
Ветер
(напр.,м/с)
Видим. Явления Облачность Т
(С)
Тd
(С)
f
(%)
Тe
(С)
Тes
(С)
Комфортность P
(гПа)
Po
(гПа)
Тmin
(С)
Tmax
(С)
R
(мм)
R24
(мм)
S
(см)
Ю 5-10
{11}
11 км морось 10/10 100 м
[]
+4.3 +4.1 99 -1 -1 по сезону 989.7 986.8 0.2
Ю 6-9
{10}
7000 м слаб. ливневой дождь 9/9 100 м
[]
+4.5 +4.4 99 -1 -1 по сезону 989.4 986.5 0.4
Ю 5-10
{10}
7000 м морось {ливн. осадки, дождь} 10/10 100 м
[]
+4.6 +4.6 100 -1 -1 по сезону 989.1 986.2 1
Ю 7-12
{12}
5000 м слаб. дождь 9/9 50 м
[]
+4.4 +4.4 100 -2 -2 по сезону 988.7 985.9 2
Ю 6-11
{12}
6000 м дымка 9/9 50 м
[]
+4.4 +4.4 100 -1 -1 по сезону 988.5 985.7 0.1
Ю 6-13
{13}
7000 м ливневой дождь 9/9 100 м
[]
+4.4 +4.3 99 -1 -1 по сезону 988.2 985.4 +3.5 +4.6 <0.5
Ю 7-11
{11}
6000 м слаб. ливневой дождь 9/9 100 м
[]
+4.4 +4.3 99 -2 -2 по сезону 988.0 985.2 0.2
Ю 5-8
{11}
6000 м слаб. ливневой дождь 9/9 100 м
[]
+4.5 +4.5 100 -1 -1 по сезону 987.7 984.9 0.5
Ю 7-10
{10}
8000 м в посл. час дождь со снегом {ливн. осадки} 9/9 100 м
[]
+4.6 +4.4 99 -1 -1 по сезону 987.2 984.4 0.2
Ю 6-10
{10}
6000 м слаб. морось 9/0 100 м
[]
+4.5 +4.3 99 -1 -1 по сезону 986.9 984.1 0.1
Ю 6-9
{12}
6000 м в посл. час осадки 9/9 50 м
[]
+4.4 +4.3 99 -1 -1 по сезону 986.6 983.8 0.1
Ю 5-8
{10}
7000 м ливневой дождь 9/9 50 м
[]
+4.5 +4.4 99 -1 -1 по сезону 986.2 983.4 0.3
Ю 6-8
{10}
7000 м морось 9/9 100 м
[]
+4.3 +4.2 99 -1 -1 по сезону 985.6 982.8 0.3
Ю 6-8
{8}
8000 м слаб. дождь 9/9 100 м
[]
+4.4 +4.3 99 -1 -1 по сезону 985.2 982.4 0.4
Ю 4-7
{9}
8000 м слаб. дождь 9/9 100 м
[]
+4.4 +4.4 100 -0 -0 по сезону 984.8 982.0 0.8
Ю 4-7
{8}
7000 м дождь 9/9 100 м
[]
+4.4 +4.3 99 -0 -0 по сезону 984.8 982.0 3
С 6-9
{10}
5000 м слаб. дождь 9/9 100 м
[]
+0.7 +0.6 99 -6 -6 холодно 985.3 982.5 3
С 7 3000 м слаб. снег 9/9 100 м
[]
-0.1 -0.1 100 -8 -8 очень
холодно
986.2 983.3 -0.2 +4.6 0.6
С 8-12
{13}
1900 м снег ?/? -0.9 -0.9 100 -9 -9 очень
холодно
987.1 984.2 0.5
С 6-10
{12}
23 км слаб. снег 9/9 300 м
[]
-0.9 -0.9 100 -8 -8 очень
холодно
988.0 985.1 0.2
С 6-11
{11}
50 км слаб. ливневой снег 9/9 300 м
[]
-1.3 -1.3 100 -9 -9 очень
холодно
989.3 986.4
СЗ 5-8
{11}
50 км 9/6 300 м
[]
-1.8 -2.0 99 -9 -9 очень
холодно
990.6 987.7
СЗ 5-7
{11}
50 км 9/1 300 м
[]
-2.6 -3.0 97 -10 -10 очень
холодно
991.7 988.8
СЗ 5-8
{8}
50 км {ливн. осадки, снег} 4/1 300 м
[]
-3.5 -4.1 96 -11 -11 очень
холодно
992.8 989.9
СЗ 3-6
{9}
50 км ясно -4.3 -4.8 96 -10 -10 очень
холодно
993.9 991.0
СЗ 4-6
{8}
50 км 1/0 300 м
[]
-5.0 -5.5 96 -12 -12 очень
холодно
994.7 991.8
СЗ 4-7
{9}
50 км 9/9 300 м
[]
-5.1 -6.0 93 -12 -12 очень
холодно
996.0 993.0
СЗ 2-4
{8}
50 км ясно -5.9 -6.6 95 -10 -10 очень
холодно
997.0 994.1
СЗ 3-4
{5}
50 км ясно -6.1 -6.6 96 -12 -12 очень
холодно
997.6 994.6
СЗ 3-5
{5}
50 км ясно -6.3 -6.8 96 -12 -12 очень
холодно
998.4 995.5 -6.4 -0.1 0
З 2-4
{5}
50 км ясно -6.6 -7.2 95 -11 -11 очень
холодно
999.1 996.1
З 3-5
{5}
50 км ясно -5.9 -6.7 94 -12 -12 очень
холодно
999.8 996.8
СЗ 3-6
{6}
50 км ясно -4.6 -5.7 92 -10 -10 очень
холодно
1000.5 997.5
СЗ 3-5
{7}
50 км ясно -3.5 -4.7 91 -9 -9 очень
холодно
1000.8 997.8
СЗ 4-5
{6}
50 км 4/4
[]
-2.9 -4.3 90 -9 -9 очень
холодно
1001.6 998.6
СЗ 4-6
{9}
50 км 9/9
[]
-3.1 -4.7 89 -9 -9 очень
холодно
1002.2 999.3
СЗ 3-5
{7}
50 км 1/0
[]
-3.7 -5.0 91 -9 -9 очень
холодно
1003.2 1000.2
СЗ 2-3
{5}
50 км ясно -4.6 -5.6 93 -9 -9 очень
холодно
1003.9 1000.9
З 2-3
{3}
50 км ясно -5.4 -5.9 96 -10 -10 очень
холодно
1004.4 1001.4
СЗ 1-2
{5}
50 км ясно -5.2 -5.7 96 -8 -8 очень
холодно
1004.8 1001.8
ЮЗ 1-3
{3}
50 км ясно -5.8 -6.0 98 -8 -8 очень
холодно
1005.1 1002.1
З 2-3
{4}
45 км 9/0
[]
-5.2 -5.5 98 -10 -10 очень
холодно
1005.3 1002.3 -6.7 -2.7
СЗ 2-4
{5}
50 км 4/4 100 м
[]
-5.0 -5.3 98 -9 -9 очень
холодно
1006.0 1003.0
СЗ 2-3
{5}
50 км ясно -5.5 -5.6 99 -10 -10 очень
холодно
1006.6 1003.6
З 2-3
{4}
50 км ясно -5.5 -5.5 100 -10 -10 очень
холодно
1007.0 1004.0
З 2-4
{4}
50 км ясно -5.3 -5.3 100 -10 -10 очень
холодно
1007.2 1004.2
З 3-4
{6}
50 км ясно -5.0 -5.2 98 -11 -11 очень
холодно
1007.3 1004.3
З 2-4
{6}
50 км ясно -5.0 -5.5 96 -9 -9 очень
холодно
1007.6 1004.6
З 3-4
{4}
50 км ясно -5.5 -5.9 97 -11 -11 очень
холодно
1007.6 1004.6
З 3-4
{5}
50 км ясно -5.5 -5.8 98 -11 -11 очень
холодно
1007.5 1004.5
З 3-5
{6}
50 км 1/0
[]
-4.8 -5.3 96 -10 -10 очень
холодно
1007.4 1004.4
З 3-5
{6}
50 км 4/1 1000 м
[]
-4.3 -5.0 95 -10 -10 очень
холодно
1007.0 1004.0
З 3-5
{5}
50 км ясно -4.5 -5.1 96 -10 -10 очень
холодно
1006.8 1003.8
З 4-6
{6}
50 км 4/0 1000 м
[]
-3.5 -4.5 93 -10 -10 очень
холодно
1006.5 1003.6 -5.6 -3.5 0
З 3-6
{8}
50 км 1/0
[]
-2.7 -4.1 90 -8 -8 очень
холодно
1005.9 1002.9
З 4-7
{7}
50 км ясно -2.4 -3.7 91 -8 -8 очень
холодно
1005.8 1002.8
З 4-7
{8}
50 км ясно -1.7 -2.8 92 -8 -8 очень
холодно
1005.7 1002.7
З 4-7
{9}
50 км ясно -1.4 -2.4 93 -7 -7 холодно 1005.3 1002.4
З 4-6
{8}
50 км 6/0
[]
-0.7 -1.8 92 -6 -6 холодно 1005.2 1002.2
З 4-7
{7}
50 км 6/4 300 м
[]
-0.5 -1.5 93 -6 -6 холодно 1005.0 1002.1
ЮЗ 4-6
{7}
50 км 4/0 300 м
[]
-0.8 -1.8 93 -7 -7 холодно 1004.3 1001.4
ЮЗ 4-7
{8}
50 км 9/9 300 м
[]
-0.8 -1.8 93 -7 -7 холодно 1004.4 1001.5
ЮЗ 4-7
{7}
50 км 9/9
[]
-1.3 -2.0 95 -7 -7 холодно 1003.8 1000.9
З 4-7
{8}
50 км 9/9
[]
-0.9 -2.2 91 -7 -7 холодно 1003.9 1001.0
З 4-8
{8}
50 км 9/9
[]
-0.8 -2.2 90 -7 -7 холодно 1003.6 1000.7
З 3-6
{7}
50 км 10/4 1500 м
[]
-0.7 -2.2 90 -6 -6 холодно 1003.5 1000.6 -3.5 -0.4
З 3-6
{7}
50 км в посл. час осадки 9/1 600 м
[]
-0.7 -2.0 91 -6 -6 холодно 1003.2 1000.3
З 4-6
{7}
50 км 10/1 600 м
[]
-0.8 -1.8 93 -7 -7 холодно 1003.0 1000.1
З 4-6
{6}
50 км {ливн. осадки, туман} 1/0
[]
-0.8 -1.8 93 -7 -7 холодно 1002.8 999.9
З 3-5
{7}
50 км 1/0 1000 м
[]
-1.3 -1.9 96 -6 -6 холодно 1002.9 1000.0
СЗ 3-6
{6}
50 км 6/0 200 м
[]
-1.2 -1.7 96 -6 -6 холодно 1002.9 1000.0
З 3-6
{6}
50 км {ливн. осадки, туман} 6/6 200 м
[]
-1.2 -1.8 96 -6 -6 холодно 1003.0 1000.0
З 2-3
{5}
50 км 1/0
[]
-2.2 -2.5 98 -6 -6 холодно 1002.6 999.6
З 2-4
{4}
50 км 1/0
[]
-2.6 -2.9 98 -7 -7 холодно 1002.4 999.4
З 3-4
{4}
50 км ясно -3.0 -3.3 98 -8 -8 очень
холодно
1002.4 999.4
З 2-3
{4}
50 км 6/0 1000 м
[]
-3.3 -3.6 98 -8 -8 очень
холодно
1002.4 999.4
ЮЗ 3-4
{4}
50 км ясно -3.4 -4.1 95 -9 -9 очень
холодно
1002.2 999.2
ЮЗ 3-4
{4}
50 км ясно -3.5 -4.0 96 -9 -9 очень
холодно
1002.1 999.2 -3.5 -0.6 0
ЮЗ 2-4
{5}
50 км ясно -3.6 -3.9 98 -8 -8 очень
холодно
1002.3 999.3
ЮЗ 3-5
{5}
50 км ясно -3.3 -3.6 98 -9 -9 очень
холодно
1002.6 999.7
З 3-4
{5}
45 км ясно -2.5 -3.3 94 -8 -8 очень
холодно
1003.0 1000.1
З 3-4
{5}
50 км ясно -1.9 -3.1 91 -7 -7 холодно 1003.1 1000.1
З 2-4
{5}
45 км ясно -1.4 -3.0 89 -5 -5 холодно 1003.1 1000.2
З 3-5
{5}
50 км ясно -1.3 -2.9 89 -6 -6 холодно 1003.1 1000.2
З 2-4
{5}
50 км 9/0
[]
-1.8 -3.0 91 -6 -6 холодно 1003.2 1000.3
З 2-4
{4}
50 км 9/9
[]
-2.5 -3.3 94 -7 -7 холодно 1003.8 1000.8
З 3-4
{4}
50 км 4/0
[]
-2.8 -3.3 96 -8 -8 очень
холодно
1004.0 1001.0
З 3-4
{4}
50 км ясно -3.2 -3.5 98 -9 -9 очень
холодно
1004.5 1001.6
З 2-3
{4}
50 км ясно -3.9 -4.0 99 -8 -8 очень
холодно
1005.0 1002.0
З 2-3
{4}
45 км ясно -4.1 -4.2 99 -9 -9 очень
холодно
1005.5 1002.6 -4.3 -1.1
З 2-3
{4}
50 км ясно -4.4 -4.5 99 -9 -9 очень
холодно
1005.8 1002.9
СЗ 2-4
{4}
50 км 1/0
[]
-4.8 -4.9 99 -9 -9 очень
холодно
1006.2 1003.2
СЗ 2-4
{5}
50 км ясно -4.7 -4.9 98 -9 -9 очень
холодно
1006.5 1003.5
СЗ 3-5
{5}
50 км 1/0
[]
-4.7 -5.0 98 -10 -10 очень
холодно
1007.2 1004.2
З 3-5
{5}
50 км ясно -4.7 -5.1 97 -10 -10 очень
холодно
1007.4 1004.4
СЗ 3-5
{5}
50 км ясно -4.9 -5.3 97 -11 -11 очень
холодно
1007.4 1004.4
З 4-6
{7}
50 км ясно -4.7 -5.2 96 -11 -11 очень
холодно
1008.0 1005.0
З 2-4
{6}
50 км ясно -4.9 -5.4 96 -9 -9 очень
холодно
1008.1 1005.1
З 3-5
{5}
50 км ясно -4.8 -5.3 96 -10 -10 очень
холодно
1008.1 1005.1
З 3-5
{6}
50 км 6/0
[]
-4.6 -5.2 96 -10 -10 очень
холодно
1008.3 1005.3
СЗ 3-4
{5}
50 км 9/0
[]
-4.4 -5.0 96 -10 -10 очень
холодно
1008.4 1005.4
З 3-4
{5}
50 км 6/0
[]
-4.8 -5.1 98 -10 -10 очень
холодно
1008.7 1005.7 -5.2 -4.1 0
З 4-6
{6}
50 км ясно -4.7 -5.0 98 -11 -11 очень
холодно
1008.7 1005.7
З 3-6
{6}
45 км ясно -4.1 -4.6 96 -10 -10 очень
холодно
1008.7 1005.7
З 2-4
{6}
45 км ясно -3.6 -4.3 95 -8 -8 очень
холодно
1009.0 1006.0
З 3-5
{6}
45 км ясно -2.8 -3.6 94 -8 -8 очень
холодно
1008.9 1005.9
З 3-5
{5}
45 км ясно -2.3 -3.2 94 -8 -7 очень
холодно
1009.0 1006.1
СЗ 3-5
{6}
50 км ясно -2.0 -2.9 94 -7 -7 холодно 1008.9 1006.0
З 2-5
{5}
50 км ясно -1.9 -2.8 94 -6 -6 холодно 1008.7 1005.7
З 3-4
{5}
50 км ясно -2.3 -3.0 95 -8 -8 очень
холодно
1008.5 1005.6
З 3-3
{4}
50 км ясно -2.4 -2.9 96 -8 -8 очень
холодно
1008.1 1005.2
ЮЗ 2-4
{4}
45 км 9/0
[]
-2.4 -2.8 97 -7 -7 холодно 1007.7 1004.8
ЮЗ 2-4
{4}
50 км 9/9
[]
-2.0 -2.5 96 -6 -6 холодно 1007.3 1004.3
ЮЗ 2-3
{4}
50 км ясно -1.7 -2.6 94 -6 -6 холодно 1006.5 1003.5 -5.0 -1.7
ЮЗ 2-3
{4}
50 км 1/0
[]
-0.7 -2.3 89 -5 -5 холодно 1005.5 1002.6
ЮЗ 2-3
{4}
50 км 9/0
[]
0.0 -2.0 86 -4 -4 прохладно 1005.3 1002.4
ЮЗ 2-5
{5}
50 км 9/0
[]
+0.6 -1.6 85 -3 -3 прохладно 1004.1 1001.2
ЮЗ 2-4
{5}
50 км 9/4 600 м
[]
+1.3 -0.5 88 -2 -2 по сезону 1003.4 1000.5
ЮЗ 3-5
{6}
45 км 10/10 1000 м
[]
+2.2 +0.9 91 -2 -2 по сезону 1003.1 1000.2
ЮЗ 3-5
{6}
13 км морось {туман} 10/10 200 м
[]
+2.9 +2.6 98 -1 -1 по сезону 1002.3 999.5 0.1
ЮЗ 4-6
{8}
50 км в посл. час морось 10/10 100 м
[]
+3.2 +3.1 99 -2 -2 по сезону 1000.9 998.0
З 3-7
{7}
22 км 10/10 100 м
[]
+2.9 +2.8 99 -1 -1 по сезону 1000.3 997.5
З 5-7
{9}
7000 м дымка 10/10 100 м
[]
+2.6 +2.6 100 -3 -3 прохладно 1000.6 997.7
З 4-6
{7}
17 км 10/10 100 м
[]
+2.5 +2.5 100 -3 -3 прохладно 999.9 997.1
З 3-6
{8}
50 км 9/0 200 м
[]
+2.5 +2.3 99 -2 -2 по сезону 1000.2 997.3
З 4-7
{7}
11 км морось {туман} 9/9 100 м
[]
+2.6 +2.6 100 -3 -3 прохладно 999.7 996.9 -1.8 +3.3 0.1 0
З 4-8
{8}
50 км в посл. час морось 9/9 100 м
[]
+3.2 +3.2 100 -2 -2 по сезону 999.9 997.0 0.1
З 3-6
{9}
50 км 9/9 100 м
[]
+3.4 +3.3 99 -1 -1 по сезону 1000.1 997.3
З 4-7
{8}
50 км {ливн. осадки, дождь} 1/0
[]
+3.6 +3.3 98 -1 -1 по сезону 1000.7 997.8
З 4-7
{9}
50 км ясно +4.3 +3.6 95 -0 0 по сезону 1001.3 998.4
СЗ 5-9
{9}
50 км ясно +5.1 +3.9 92 0 0 по сезону 1001.4 998.6
СЗ 5-8
{9}
50 км {ливн. осадки, дождь} ясно +4.9 +3.6 91 0 0 по сезону 1001.8 998.9
СЗ 5-8
{8}
50 км ясно +4.8 +3.5 91 -0 -0 по сезону 1002.1 999.2
З 4-5
{8}
50 км ясно +4.3 +3.3 93 -0 -0 по сезону 1002.8 999.9
З 3-5
{5}
50 км ясно +3.9 +3.0 94 -0 -0 по сезону 1003.3 1000.5
З 3-5
{6}
50 км ясно +3.6 +2.7 94 -0 -0 по сезону 1003.8 1001.0
З 3-5
{6}
50 км ясно +3.4 +2.7 95 -1 -1 по сезону 1004.1 1001.2
З 3-5
{5}
50 км ясно +3.1 +2.5 96 -1 -1 по сезону 1004.5 1001.6 +2.6 +5.3
ЮЗ 3-4
{5}
50 км 1/0
[]
+2.7 +2.4 98 -2 -2 по сезону 1004.7 1001.8
ЮЗ 3-4
{6}
50 км ясно +2.7 +2.3 97 -2 -2 по сезону 1004.8 1001.9
ЮЗ 2-4
{5}
50 км ясно +2.6 +2.2 97 -1 -1 по сезону 1004.7 1001.8
ЮЗ 3-5
{5}
28 км 9/9 50 м
[]
+3.5 +3.5 100 -1 -1 по сезону 1004.0 1001.1
ЮЗ 3-6
{8}
45 км 9/9 100 м
[]
+4.2 +4.2 100 0 0 по сезону 1003.6 1000.8
ЮЗ 4-8
{10}
50 км 9/9 100 м
[]
+4.2 +3.9 98 -0 -0 по сезону 1003.1 1000.2
ЮЗ 5-10
{10}
25 км 9/9 100 м
[]
+4.8 +4.6 99 -0 -0 по сезону 1002.4 999.6
ЮЗ 5-9
{9}
24 км 9/9 200 м
[]
+5.2 +4.8 97 0 0 по сезону 1002.0 999.1
ЮЗ 6-11
{11}
28 км 9/9 200 м
[]
+5.5 +4.8 95 0 0 по сезону 1001.7 998.8
ЮЗ 5-10
{11}
27 км 9/9 200 м
[]
+5.8 +4.9 94 +1 +1 по сезону 1001.4 998.5
ЮЗ 5-9
{9}
35 км 9/9 300 м
[]
+6.0 +4.8 92 +2 +2 по сезону 1000.5 997.7
З 5-9
{11}
35 км 9/9 300 м
[]
+6.1 +4.2 88 +2 +2 по сезону 1000.2 997.3 +2.5 +6.1 <0.5
З 6-12
{12}
45 км 9/9 300 м
[]
+5.7 +3.4 85 +1 +1 по сезону 1000.3 997.4
З 4-10
{10}
45 км 9/9 300 м
[]
+5.4 +3.3 86 +1 +1 по сезону 1000.2 997.4
З 5-9
{9}
40 км 9/9 300 м
[]
+5.7 +3.4 85 +1 +1 по сезону 999.6 996.8
З 5-9
{9}
45 км 10/10 300 м
[]
+6.0 +3.6 85 +2 +2 по сезону 998.7 995.8
З 6-11
{11}
35 км 10/10 300 м
[]
+6.1 +3.9 86 +1 +1 по сезону 998.0 995.2
ЮЗ 6-10
{11}
50 км 10/10 600 м
[]
+6.4 +4.1 85 +2 +2 по сезону 997.0 994.1
ЮЗ 5-11
{11}
16 км морось 10/10 300 м
[]
+6.6 +4.8 88 +2 +2 по сезону 996.0 993.2
ЮЗ 5-9
{11}
45 км 4/4 600 м
[]
+6.7 +3.7 81 +3 +3 по сезону 995.8 993.0
З 6-11
{14}
13 км слаб. дождь 9/9 600 м
[]
+6.3 +3.5 82 +2 +2 по сезону 995.2 992.4 0.1
З 6-10
{12}
16 км слаб. ливневой дождь 9/9 600 м
[]
+6.4 +3.1 79 +2 +2 по сезону 995.1 992.2
З 6-10
{10}
50 км в посл. час морось 9/9 600 м
[]
+6.7 +2.4 74 +2 +2 по сезону 994.8 992.0
З 6-9
{11}
50 км {ливн. осадки, дождь} 10/10 1000 м
[]
+6.7 +2.7 76 +2 +2 по сезону 994.3 991.5 +5.3 +6.9
ЮЗ 6-12
{12}
50 км 10/10 600 м
[]
+6.8 +2.7 75 +2 +2 по сезону 993.7 990.9
ЮЗ 6-10
{11}
45 км 10/10 600 м
[]
+6.7 +3.5 80 +2 +2 по сезону 993.0 990.2
ЮЗ 6-10
{11}
45 км 10/10 600 м
[]
+6.8 +3.3 78 +2 +2 по сезону 992.7 989.9
З 6-10
{13}
40 км 10/10 600 м
[]
+6.9 +3.0 76 +3 +3 по сезону 992.2 989.4
ЮЗ 6-10
{12}
40 км в посл. час морось 10/10 600 м
[]
+6.8 +3.4 79 +2 +2 по сезону 991.8 989.0
ЮЗ 6-11
{11}
19 км морось {ливн. осадки} 10/10 600 м
[]
+6.4 +4.0 85 +2 +2 по сезону 991.7 988.9
Местоположение метеостанции Порвоо (Финляндия): широта 60.39 долгота 25.61 высота над уровнем моря 22 м.
В архиве по умолчанию представлена погода в Порвоо за последнюю неделю. Архивные данные за месяц целиком и за предыдущие месяцы, начиная с января 2011 года, Вы можете получить, выбрав интересующий диапазон дат из раскрывающегося списка и нажав кнопку "Найти!".
*Определитесь, кто Вы:
Внимание! Время в таблицах - всемирное. Для получения местного времени необходимо прибавить поправку, которая равна 1 ч.
Смотрите также архив погоды в соседних городах и на ближайших метеорологических станциях:
Партнеры нашего сайта:      
Пояснения к столбцам:
  • Ветер - указаны скорость ветра в м/с - средняя за 10 мин, порывы в срок и между сроками (в фигурных скобках) и направление, откуда дует ветер: С - северный,
  • СВ - северо-восточный, В - восточный, ЮВ - юго-восточный, Ю - южный, ЮЗ - юго-западный, З - западный, СЗ - северо-западный.
  • Видимость - горизонтальная дальность видимости в метрах или километрах. При видимости от 1 до 10 км при отсутствии осадков обычно наблюдается дымка, при ухудшении видимости до 1 км и менее - туман. В сухую погоду видимость может ухудшаться дымом, пылью или мглою.
  • Явления - указаны атмосферные явления, наблюдавшиеся в срок или в последний час перед сроком; фигурными скобками обозначены явления, наблюдавшиеся между сроками (за 1-3 часа до срока); квадратными скобками обозначены град или гололедные отложения с указанием их диаметра в мм.
  • Облачность - указаны через наклонную черту общая и нижняя облачность в баллах и высота нижней границы облаков в метрах; квадратными скобками обозначены формы облаков: Ci - перистые, Cs - перисто-слоистые, Cc - перисто-кучевые, Ac - высококучевые, As - высокослоистые, Sc - слоисто-кучевые, Ns - слоисто-дождевые, Cu - кучевые, Cb - кучево-дождевые. Подробнее классификацию облаков см. в Атласе облаков (PDF).
  • T - Температура воздуха - температура, измеренная на высоте 2 м над землей.
  • Td - Температура точки росы - температура, при понижении до которой содержащийся в воздухе водяной пар достигнет насыщения.
  • f - Относительная влажность воздуха - влажноcть воздуха, измеренная на высоте 2 м над землей.
  • Te - Эффективная температура - температура, которую ощущает одетый по сезону человек в тени. Характеристика душности погоды. При расчете учитывается влияние влажности воздуха и скорости ветра на теплоощущения человека.
  • Tes - Эффективная температура на солнце - температура, которую ощущает человек, с поправкой на солнечный нагрев. Характеристика знойности погоды. Зависит от высоты солнца над горизонтом, облачности и скорости ветра. Ночью, в пасмурную погоду, а также при ветре 12 м/с и более поправка равна нулю.
  • P - Атмосферное давление - приведенное к уровню моря атмосферное давление.
  • Po - Атмосферное давление - измеренное на уровне метеостанции атмосферное давление.
  • Tmin - Минимальная температура - минимум температуры воздуха на высоте 2 м над землей.
  • Tmax - Максимальная температура - максимум температуры воздуха на высоте 2 м над землей.
  • R - Количество осадков - Количество выпавших осадков за период времени, мм. При наведении курсора мыши на число - период времени, за который выпало указанное количество осадков.
  • R24 - Количество осадков - Количество выпавших осадков за 24 часа, мм.
  • S - Снежный покров - Высота снежного покрова, см. При наведении курсора мыши на число - состояние снежного покрова и степень покрытия местности в баллах.